#timestamp,LO_Frequency,Hit,StdDev 
1563458415.8,286046996.9,N
1563458435.7,286046997.0,N
1563458455.5,286046996.1,N
1563458475.3,286046995.2,Y
1563458495.2,286046995.0,P
1563458515.0,286046996.3,N
1563458515.9,286046996.3,N
1563458535.7,286046994.6,Y
1563458555.6,286046995.4,P
1563458575.4,286046995.1,P
1563458595.3,286046995.4,P
1563458615.1,286046995.4,Y
1563458635.8,286047000.5,P
1563458655.7,286046999.8,N
1563458675.5,286047001.6,N
1563458695.3,286047003.8,N
1563458715.2,286047004.2,N
1563458735.0,286047004.4,N
1563458735.9,286047004.4,N
1563458755.8,286047003.8,N
1563458775.6,286047003.8,N
1563458795.4,286047003.6,N
1563458815.3,286047003.0,N
1563458835.1,286047003.2,N
1563458855.9,286047002.9,N
1563458875.7,286047004.2,N
1563458895.5,286047003.3,N
1563458915.4,286047004.1,N
1563458935.2,286047001.6,N
1563458955.0,286047003.6,N
1563458955.9,286047003.6,N
1563458975.8,286047005.6,N
1563458995.6,286047004.7,N
1563459015.4,286047003.3,N
1563459035.3,286047005.6,N
1563459055.1,286047003.5,N
1563459075.9,286047006.0,N
1563459095.7,286047004.2,N
1563459115.5,286047005.8,N
1563459135.4,286047004.9,N
1563459155.2,286047004.9,N
1563459175.0,286047006.0,N
1563459176.0,286047006.0,Y
1563459195.8,286047000.2,P
1563459215.6,286047000.8,N
1563459235.5,286047001.1,N
1563459255.3,286047001.1,N
1563459275.1,286046998.8,N
1563459295.9,286046999.2,N
1563459315.7,286046999.1,N
1563459335.6,286046999.3,N
1563459355.4,286046998.8,N
1563459375.2,286046998.8,N
1563459395.1,286046997.7,N
1563459396.0,286046997.7,N
1563459415.8,286046998.0,N
1563459435.7,286046994.9,Y
1563459455.5,286046997.2,P
1563459475.3,286046997.3,N
1563459495.2,286046996.5,P
1563459515.9,286046998.8,N
1563459535.7,286046998.6,N
1563459555.6,286046996.7,Y
1563459575.4,286046998.2,P
1563459595.3,286046998.2,P
1563459615.1,286046998.1,P
1563459616.0,286046998.1,Y
1563459635.8,286046999.9,P
1563459655.7,286046999.7,N
1563459675.5,286047002.0,N
1563459695.3,286047001.4,N
1563459715.2,286047003.7,N
1563459735.0,286047005.5,Y
1563459765.9,286047005.7,E
1563459775.9,286047001.9,N
1563459795.7,286046998.3,P
1563459815.5,286046998.5,N
1563459835.4,286046998.4,N
1563459855.2,286046998.2,N
1563459875.1,286046998.9,N
1563459876.0,286046998.9,N
1563459895.8,286046998.7,N
1563459915.6,286047000.7,N
1563459935.5,286046998.9,N
1563459955.3,286046998.7,N
1563459975.1,286046998.4,N
1563459995.9,286047001.0,N
1563460015.7,286047002.8,N
1563460035.6,286047000.0,N
1563460055.4,286046999.9,N
1563460075.2,286047000.6,N
1563460095.1,286047000.9,N
1563460096.0,286047000.9,N
1563460115.8,286047000.3,N
1563460135.7,286047000.3,N
1563460155.5,286047002.8,N
1563460175.3,286046999.7,N
1563460195.2,286047001.6,N
1563460215.9,286047002.6,N
1563460235.7,286047000.5,N
1563460255.6,286047000.3,N
1563460275.4,286047000.3,N
1563460295.3,286047000.4,N
1563460315.1,286047000.3,N
1563460316.0,286047000.3,N
1563460335.8,286047000.5,N
1563460355.7,286047002.8,N
1563460375.5,286047001.7,N
1563460395.3,286047001.4,N
1563460415.2,286047002.0,N
1563460435.0,286047002.1,N
1563460435.9,286047002.1,N
1563460455.8,286047002.4,N
1563460475.6,286047002.8,N
1563460495.4,286047001.7,N
1563460515.3,286047004.0,Y
1563460535.1,286047001.8,P
1563460555.8,286047001.4,P
1563460575.7,286047002.6,P
1563460595.5,286047000.1,N
1563460615.4,286047002.6,Y
1563460635.2,286046998.5,P
1563460655.0,286046998.6,N
1563460655.9,286046998.6,N
1563460675.8,286047000.8,N
1563460695.6,286046998.2,N
1563460715.5,286047001.0,N
1563460735.3,286047001.1,N
1563460755.1,286046997.3,N
1563460775.9,286046997.7,N
1563460795.7,286046999.4,N
1563460815.5,286046999.5,N
1563460835.4,286046998.3,N
1563460855.2,286046998.5,N
1563460875.1,286046998.2,N
1563460876.0,286046998.2,N
1563460895.8,286046998.1,N
1563460915.6,286047001.1,N
1563460935.5,286047001.0,N
1563460955.3,286046999.8,N
1563460975.1,286047001.9,N
1563460995.9,286047004.1,N
1563461015.7,286047003.4,N
1563461035.6,286047003.5,N
1563461055.4,286047004.4,N
1563461075.2,286047001.9,N
1563461095.1,286047001.4,N
1563461096.0,286047001.4,N
1563461115.8,286047003.9,N
1563461135.6,286047003.7,N
1563461155.5,286047003.6,N
1563461175.3,286047003.3,N
1563461195.2,286047003.8,N
1563461215.9,286047003.5,N
1563461235.7,286047005.7,N
1563461255.6,286047005.5,N
1563461275.4,286047003.2,N
1563461295.2,286047003.5,N
1563461315.1,286047003.2,N
1563461316.0,286047003.2,N
1563461335.8,286047003.3,N
1563461355.7,286047003.3,N
1563461375.5,286047004.0,N
1563461395.3,286047001.7,N
1563461415.2,286047002.5,N
1563461435.0,286047001.0,N
1563461435.9,286047001.0,N
1563461455.8,286047000.5,N
1563461475.6,286046999.9,N
1563461495.4,286047000.4,N
1563461515.3,286047000.9,N
1563461535.1,286047000.9,N
1563461555.8,286046998.1,N
1563461575.7,286046998.6,N
1563461595.5,286046998.5,N
1563461615.4,286047000.7,N
1563461635.2,286047000.4,N
1563461655.0,286047000.0,N
1563461655.9,286047000.0,N
1563461675.8,286047000.0,N
1563461695.6,286047001.1,N
1563461715.5,286047000.6,N
1563461735.3,286047000.5,N
1563461755.1,286047000.4,N
1563461775.9,286047000.6,N
1563461795.7,286046998.5,N
1563461815.5,286046999.6,N
1563461835.4,286046999.1,N
1563461855.2,286046999.2,N
1563461875.1,286046999.5,N
1563461876.0,286046999.5,N
1563461895.8,286047000.5,N
1563461915.6,286046999.9,N
1563461935.5,286047000.3,N
1563461955.3,286047002.1,N
1563461975.2,286047002.0,N
1563461995.9,286046999.7,N
